Tracking 19170 objects as of 23-May-2018
HD Live streaming from Space Station
objects crossing your sky now

COSMOS 864

Track COSMOS 864 now!
10-day predictions
COSMOS 864 is classified as:


NORAD ID: 9509
Int'l Code: 1976-108A
Perigee: 964.4 km
Apogee: 1,010.8 km
Inclination: 82.9 °
Period: 104.7 minutes
Semi major axis: 7358 km
RCS: 2.1559 m2 (large)
Launch date: October 29, 1976
Source: Commonwealth of Independent States (former USSR) (CIS)
Launch site: PLESETSK MISSILE AND SPACE COMPLEX (PKMTR)
aabbcc
Your satellite tracking list
Your tracking list is empty




NASA's NSSDC Master Catalog

Two Line Element Set (TLE):
1  9509U 76108A   18142.61144308 +.00000018 +00000-0 +28453-5 0  9994
2  9509 082.9398 175.2871 0031484 092.6304 018.5461 13.75337880085259
Source of the keplerian elements: AFSPC